Location: Assolo
(39.8103°N, 8.9194°E)
Time: 11:13:22
(UTC+00:00)

Daily predictions for brighter satellites

Satellite Brightness Start Highest point End
(mag) Time Altitude Azimuth Time Altitude Azimuth Time Altitude Azimuth
CZ-4B R/B 2.8 16:21:05 10° SSE 16:25:12 73° ENE 16:29:07 10° N
CZ-4C R/B 4.0 16:19:49 10° NNW 16:25:15 22° NE 16:31:18 10° E
CZ-2C R/B 4.0 16:21:52 10° NE 16:25:24 18° E 16:28:53 10° SE
Cosmos 1500 Rocket 3.9 16:21:10 10° N 16:25:28 46° E 16:29:41 10° SSE
SMAP 3.4 16:22:30 10° SE 16:26:54 45° ENE 16:31:20 10° N
CZ-2C R/B 2.9 16:23:59 10° SSE 16:28:58 87° ENE 16:33:48 10° NNW
Cosmos 468 Rocket 4.0 16:25:57 10° SSW 16:31:04 77° ESE 16:36:17 10° NNE
Cosmos 1933 3.6 16:30:34 10° SSE 16:34:26 46° E 16:38:20 10° NNE
Cosmos 1092 Rocket 4.3 16:28:49 10° N 16:34:56 47° ENE 16:40:59 10° SSE
Cosmos 1898 Rocket 3.7 16:31:21 10° N 16:36:25 46° ENE 16:41:23 10° SE
Cosmos 44 3.3 16:32:02 10° NNW 16:36:45 80° WSW 16:41:11 10° SSE
Cosmos 1805 Rocket 4.1 16:33:00 10° N 16:36:59 35° ENE 16:40:58 10° SE
Cosmos 1842 Rocket 4.3 16:32:44 10° SSW 16:37:06 57° W 16:41:31 10° N
Cosmos 2221 3.6 16:33:07 10° SSW 16:37:14 47° W 16:41:23 10° N
Sich 1 3.9 16:33:55 10° NNE 16:37:37 28° ENE 16:41:19 10° SE
PSLV R/B 4.4 16:37:03 10° SE 16:40:19 31° ENE 16:43:38 10° N
AQUARIUS 4.1 16:46:02 10° SSE 16:50:29 67° ENE 16:54:57 10° N
FengYun 1-2 T 4.4 16:46:13 10° SSE 16:51:49 83° WSW 16:57:24 10° NNW
H-2A R/B 2.4 16:47:59 10° SE 16:52:51 42° ENE 16:57:38 10° N
Cosmos 2084 3.5 16:48:32 10° NNW 16:52:52 65° NE 16:57:20 10° SE
GPS 2-04 Rocket1 3.5 16:48:58 10° WSW 16:52:56 47° S 16:56:49 10° ESE
Cosmos 1656 4.1 16:48:03 10° NNW 16:53:35 68° WSW 16:59:09 10° SSE
Cosmos 2034 Rocket 4.5 16:47:40 10° SSW 16:53:46 64° W 16:59:54 10° N
Cosmos 1627 Rocket 4.5 16:49:34 10° N 16:55:39 58° E 17:01:39 10° SSE
Cosmos 2279 Rocket 4.4 16:54:11 10° SSE 16:59:55 40° E 17:05:38 10° NNE
Cosmos 1666 3.9 16:57:46 10° NNE 17:00:35 20° ENE 17:03:25 10° SE
USA 267 4.2 16:58:46 10° NE 17:04:43 39° NNW 17:10:41 10° W
Cosmos 1697 Rocket 2.6 16:59:21 10° NNW 17:05:00 73° ENE 17:10:35 10° SSE
Cosmos 1763 Rocket 4.4 17:01:09 10° SW 17:06:01 47° WNW 17:10:57 10° N
DEBRIS 4.4 17:05:01 10° SE 17:06:15 13° ESE 17:06:15 13° ESE
Cosmos 1939 Rocket 3.6 17:02:36 10° S 17:06:40 57° W 17:10:42 10° NNW
Cosmos 2369 3.9 17:02:45 10° NNW 17:08:21 51° ENE 17:13:53 10° SE
Cosmos 1980 Rocket 2.6 17:03:28 10° N 17:08:48 40° ENE 17:14:03 10° SE
COSMO-SKYMED 1 2.9 17:05:44 10° NNE 17:09:54 44° E 17:14:02 10° S
MOS 1-B Rocket 4.1 17:04:17 10° NNE 17:10:15 68° ESE 17:17:04 10° S
Cosmos 841 Rocket 3.4 17:06:14 10° SSW 17:11:23 81° ESE 17:16:33 10° NNE
Cosmos 1812 2.9 17:09:27 10° SSE 17:13:08 47° E 17:16:31 12° NNE
SL-24 R/B - RUBIN 2 4.2 17:09:20 10° NNW 17:13:24 33° NE 17:15:48 19° ESE
Meteor 1-25 Rocket 4.4 17:08:15 10° NNW 17:13:49 75° W 17:19:24 10° S
Meteor 2-21 4.3 17:08:41 10° N 17:14:46 73° E 17:20:47 10° SSE
Cosmos 1634 Rocket 4.0 17:09:03 10° S 17:15:22 87° E 17:21:45 10° N
Cosmos 1937 Rocket 3.4 17:12:40 10° NNW 17:18:01 80° ENE 17:23:19 10° SSE
SL-16 R/B 3.9 17:15:16 10° NNE 17:17:26 14° NE 17:17:26 14° NE
Cosmos 2082 Rocket 2.1 17:13:16 10° SSW 17:18:56 79° ESE 17:24:28 11° NNE
Cosmos 921 Rocket 4.2 17:17:11 10° SSE 17:20:00 21° ESE 17:20:00 21° ESE
Cosmos 1633 Rocket 3.5 17:16:54 10° N 17:20:58 36° ENE 17:25:01 10° SE
USA 229 DEB 4.0 17:15:28 10° NW 17:22:57 84° WSW 17:30:50 10° SSE
USA 229 4.0 17:15:34 10° NW 17:23:03 85° WSW 17:30:55 10° SSE
Cosmos 2026 Rocket 4.0 17:20:28 10° N 17:26:37 82° W 17:32:39 10° S
Okean O Rocket 1.8 17:23:27 10° SSE 17:27:44 49° ENE 17:32:03 10° N
USA 276 2.5 17:28:11 10° WNW 17:31:15 59° SW 17:32:47 26° SSE
Cosmos 372 Rocket 3.9 17:27:06 10° NNW 17:32:20 68° ENE 17:37:33 10° SSE
Cosmos 2278 3.9 17:27:20 10° N 17:32:48 45° ENE 17:38:13 10° SE
Cosmos 1151 Rocket 2.9 17:29:41 10° S 17:33:59 80° E 17:38:08 11° N
SKYMED 3 4.5 17:29:41 10° NNE 17:34:03 85° ESE 17:38:23 10° SSW
Cosmos 1782 3.8 17:30:15 10° SSW 17:34:07 48° W 17:37:59 10° N
USA 234 3.4 17:29:49 10° SE 17:36:22 79° SW 17:42:56 10° NW
COSMOS 2406 4.2 17:31:17 10° SW 17:36:46 45° WNW 17:42:17 10° NNE
COSMOS 2455 3.2 17:32:41 10° SW 17:38:38 63° WNW 17:43:55 14° NNE
Cosmos 1655 Rocket 4.4 17:33:10 10° N 17:39:10 40° ENE 17:45:04 10° SE
ARGOS 3.0 17:35:58 10° SSE 17:41:21 72° ENE 17:46:45 10° N
Cosmos 1833 Rocket 4.3 17:38:34 10° WSW 17:43:29 31° WNW 17:48:27 10° N
Cosmos 1666 Rocket 3.5 17:41:26 10° N 17:45:53 88° ENE 17:50:17 10° S
Cosmos 2180 Rocket 4.4 17:39:53 10° S 17:46:13 74° E 17:52:30 10° N
Meteor 2-6 Rocket 4.1 17:42:15 10° S 17:48:02 75° E 17:53:25 11° NNE
Cosmos 1328 Rocket 3.4 17:43:53 10° S 17:48:19 80° E 17:50:52 25° NNE
ISS -2.0 17:48:27 10° NW 17:50:10 23° NNW 17:50:10 23° NNW
CZ-4 R/B 4.3 17:48:08 10° SSE 17:52:15 89° ENE 17:56:24 10° NNW
NOSS 2-2 (D) 4.5 17:47:12 10° NNW 17:52:49 81° ENE 18:00:42 10° SE
DMSP B5D2-2 4.1 17:57:01 49° ENE 17:57:39 53° E 18:02:44 10° S
SKYMED 2 4.3 17:53:44 10° N 17:57:58 51° WNW 18:02:10 10° SSW
CZ-4B R/B 3.5 17:52:56 10° S 17:58:21 65° WSW 18:03:41 10° NNW
Lacrosse 5 rocket 3.6 17:55:47 10° NNW 17:56:31 13° N 17:56:31 13° N
Cosmos 1570 Rocket 4.1 17:53:35 10° SSW 17:58:49 73° WNW 18:02:05 23° N
Meteor 2-8 Rocket 4.4 17:53:14 10° S 17:59:22 90° SW 18:05:35 10° N
ATLAS CENTAUR R/B 4.1 17:53:29 10° W 18:00:49 27° NW 18:03:24 17° N
SL-08 RB Rocket 3.6 17:56:37 10° SSE 18:01:15 79° ENE 18:05:52 10° N
GEOS 3 Rocket 4.0 18:02:08 44° NE 18:02:08 44° NE 18:06:42 10° NNW
Landsat 5 3.7 18:00:26 30° N 18:02:19 64° WNW 18:06:15 10° SSW
CZ-2C R/B 3.0 18:00:10 10° SSW 18:02:58 22° S 18:02:58 22° S
CZ-2C R/B 3.3 18:00:57 10° N 18:05:58 50° WNW 18:10:56 10° SW
Meteor 1-10 Rocket 4.1 18:00:17 10° S 18:06:05 77° E 18:09:02 30° NNE
Cosmos 1818 4.3 18:05:12 10° NNW 18:09:03 37° NNE 18:09:03 37° NNE
CZ-4C R/B 2.9 18:07:25 10° NNW 18:14:55 77° NE 18:20:10 26° SE
Feng Yun 1-1 Rocket 4.3 18:11:10 10° SSE 18:17:05 88° WSW 18:23:02 10° NNW
Cosmos 1515 Rocket 4.5 18:24:54 10° SSW 18:28:02 43° SSW 18:28:02 43° SSW
GPS 2-04 Rocket1 4.5 18:28:13 10° W 18:30:51 29° SW 18:30:51 29° SW
H-2A R/B 4.4 18:28:25 10° SW 18:32:24 22° W 18:36:20 10° NW
Cosmos 2322 Rocket 4.2 18:40:47 10° NNW 18:41:55 16° N 18:41:55 16° N
Cosmos 1980 Rocket 4.1 18:47:52 10° NW 18:52:34 27° WSW 18:57:13 10° SSW
SL-16 R/B 4.1 18:57:37 10° NNW 18:59:21 21° NNW 18:59:21 21° NNW
